Other Public Products
Issued by NWS Grand Forks, ND

Home | Current Version | Previous Version | Graphics & Text | Print | Product List | Glossary On
Versions: 1 2 3 4 5 6 7 8 9 10 11 12 13 14 15 16 17 18 19 20 21 22 23 24 25 26 27 28 29 30 31 32 33 34 35 36 37 38 39 40 41 42 43 44 45 46 47 48 49 50
000
FPUS83 KFGF 242231
OPUFGF
NATIONAL WEATHER SERVICE EASTERN NORTH DAKOTA/GRAND FORKS ND
500 PM CDT SUN MAY 24 2015

 **SATELLITE DATA USED TO AUGMENT SKY COVER AT AUTOMATED STATIONS**
 *****  WEATHER ACROSS EASTERN NORTH DAKOTA  *****

CITY           SKY/WX    TMP DP  RH WIND       PRES   REMARKS
GRAND FORKS    CLOUDY    75  47  36 E7        29.92F
GRAND FORKS AF CLOUDY    75  49  39 E7        29.93F
GRAND CITY NWS   N/A     72 N/A N/A E6          N/A
BUXTON           N/A     73  50  43 E10         N/A
DEVILS LAKE    CLOUDY    72  48  43 SE8       29.94F
FARGO          CLOUDY    70  51  51 SE13      29.91F
WAHPETON ARPT  CLOUDY    64  52  63 SE12      29.92S
$$

 *****  WEATHER ACROSS CENTRAL AND WESTERN NORTH DAKOTA  *****

CITY           SKY/WX    TMP DP  RH WIND       PRES   REMARKS
JAMESTOWN      CLOUDY    66  51  58 E12       29.92F
BISMARCK       CLOUDY    68  50  52 E13       29.93F
MINOT          PTSUNNY   74  42  31 E9        29.94F
MINOT AFB      PTSUNNY   76  42  29 E13G22    29.93F
GARRISON         N/A     70  47  43 SE12      29.94F
WILLISTON      MOSUNNY   77  39  25 SE9G21    29.94F
DICKINSON      CLOUDY    66  49  54 E14       29.93F
HETTINGER      CLOUDY    62  50  64 E14       29.94F
$$

 *****  OTHER OBSERVATIONS NORTHEAST NORTH DAKOTA  *****

CITY           SKY/WX    TMP DP  RH WIND       PRES   REMARKS
WALHALLA         N/A     75  43  31 SE12      29.94F
LANGDON        FAIR      75  43  31 SE15      29.97S
CAVALIER       FAIR      77  43  29 SE5       29.94S
GRAFTON        FAIR      75  46  35 E10G16    29.94F
CANDO          FAIR      72  46  40 S15       29.96S
FORT TOTTEN      N/A     72  48  43 SE7       29.95
ROLLA          FAIR      75  36  23 E15       29.96F
RUGBY          NOT AVBL
 ***** THE ABOVE OBSERVATIONS ARE NON NWS ARE NOT QUALITY
        CONTROLLED AND MAY MIS-REPORT RAIN FOR SNOW...
$$

 *****  OTHER OBSERVATIONS SOUTHEAST NORTH DAKOTA *****

CITY           SKY/WX    TMP DP  RH WIND       PRES   REMARKS
COOPERSTOWN    NOT AVBL
VALLEY CITY    CLOUDY    66  50  55 SE14      29.93F
OAKES            N/A     64  55  72 NE12      29.91F
GWINNER        NOT AVBL
SHEYENNE NWR     N/A     68  52  56 E7        29.95S
BUFFALO        NOT AVBL
WYNDMERE         N/A     70  54  56 E12         N/A
 ***** THE ABOVE OBSERVATIONS ARE NON NWS ARE NOT QUALITY
       CONTROLLED AND MAY MIS-REPORT RAIN FOR SNOW...
$$

  *****  WEATHER ACROSS NORTHERN MINNESOTA  *****

CITY           SKY/WX    TMP DP  RH WIND       PRES   REMARKS
FLAG ISLAND    CLOUDY    64  52  63 S6        29.93F
WARROAD        CLOUDY    73  46  38 E5        29.95S
ROSEAU         CLOUDY    79  43  27 E8        29.94F
HALLOCK        CLOUDY    79  41  25 SE6       29.93F
THF RVR FALLS  CLOUDY    73  45  35 E5        29.94F
HALSTAD          N/A     71  45  38 NE9         N/A
FOSSTON        CLOUDY    73  46  38 E6        29.95F
BAUDETTE       CLOUDY    76  44  32 N5        29.94F
WASKISH        CLOUDY    70  57  64 CALM      29.95S
CROOKSTON      CLOUDY    75  48  38 SE10      29.93F
$$
  *****  WEATHER ACROSS CENTRAL AND WEST MINNESOTA  *****

CITY           SKY/WX    TMP DP  RH WIND       PRES   REMARKS
BEMIDJI        CLOUDY    70  46  43 E5        29.96F
PARK RAPIDS    CLOUDY    71  48  43 E15       29.94F
WADENA         CLOUDY    66  54  63 SE9       29.94F
DETROIT LAKES  CLOUDY    68  50  52 SE9       29.94F
MOORHEAD       CLOUDY    72  52  49 E7        29.92F
FERGUS FALLS   CLOUDY    64  54  68 E7        29.93S
ELBOW LAKE     DRIZZLE   60  57  89 E9        29.92S
MORRIS MN      DRIZZLE   61  59  94 E12       29.89F
STAPLES        CLOUDY    64  50  59 SE6       29.95F
WHEATON        DRIZZLE   59  55  88 E12       29.93R
$$
  *****  WEATHER ELSEWHERE ACROSS MINNESOTA  *****

CITY           SKY/WX    TMP DP  RH WIND       PRES   REMARKS
DULUTH         CLOUDY    70  46  42 NE7       29.97F
INTRNTL FALLS  CLOUDY    76  41  28 NE6       29.94F
ELY            CLOUDY    75  39  27 CALM      29.95F
CLOQUET        LGT RAIN  66  48  52 SE6       29.98S
BRAINERD       CLOUDY    64  51  62 SE6       29.97F
HIBBING        CLOUDY    70  48  45 S6        29.97F
ALEXANDRIA     CLOUDY    60  57  89 E10       29.93F
SAINT CLOUD    LGT RAIN  59  58  96 NE7       29.93F FOG
MINNEAPOLIS    LGT RAIN  60  58  92 NE12      29.91F FOG
$$

  *****  WEATHER ACROSS SOUTH DAKOTA  *****

CITY           SKY/WX    TMP DP  RH WIND       PRES   REMARKS
SIOUX FALLS    CLOUDY    62  59  90 E12       29.81S
BROOKINGS      CLOUDY    61  57  88 E8        29.85F
WATERTOWN      LGT RAIN  59  57  93 E9        29.87F FOG
HURON          LGT RAIN  61  58  90 E6        29.84S
SISSETON         N/A     61  58  90 SE16      29.90S
ABERDEEN       CLOUDY    65  54  67 E15       29.88F
MITCHELL       CLOUDY    64  60  87 E10       29.82F
PIERRE         CLOUDY    61  57  87 E14       29.84F
MOBRIDGE       CLOUDY    66  54  65 E15       29.87F
RAPID CITY     CLOUDY    56  54  93 NE13      29.87F
$$

  *****  SOME WEATHER IN NEARBY STATES *****

CITY           SKY/WX    TMP DP  RH WIND       PRES   REMARKS
GLASGOW MT     MOSUNNY   76  34  21 E9        29.93F
GREAT FALLS MT PTSUNNY   64  42  44 NE10      30.02F
CHEYENNE WY    LGT RAIN  48  40  73 NW12      29.88S
SCOTTSBLUFF NE MOSUNNY   68  46  45 VRB3      29.79F
OMAHA NE       CLOUDY    69  61  75 SW8       29.79F
DES MOINES IA  CLOUDY    72  63  73 S8        29.80F
DAVENPORT IA   LGT RAIN  73  67  81 CALM      29.87F
CHICAGO IL     LGT RAIN  64  59  83 E6        30.01F
EAU CLAIRE WI  RAIN      59  57  93 E9        29.94F FOG
LA CROSSE WI   LGT RAIN  61  57  87 SE7G18    29.91F
$$

  *****  SOME NATIONAL WEATHER *****

CITY           SKY/WX    TMP DP  RH WIND       PRES   REMARKS
LA GUARDIA NY  PTSUNNY   72  50  45 S13G21    30.23F
RALEIGH NC     MOSUNNY   81  54  39 SW5       30.31F
ATLANTA GA     MOSUNNY   83  57  41 SE9       30.23S
NEW ORLEANS LA PTSUNNY   86  71  60 S16       30.00S HX  91
OKLAHOMA CITY  CLOUDY    70  64  81 S7        29.84R
ALBUQUERQUE NM PTSUNNY   67  38  34 NE14G22   29.91F
SALT LAKE CITY PTSUNNY   64  46  52 NW6       29.89F
LOS ANGELES CA MOSUNNY   65  53  65 W14G22    30.00F
BOISE ID       SUNNY     77  43  29 NW14      29.84F
SEATTLE WA     CLOUDY    63  50  62 VRB3      30.09F
$$

*** WEATHER ACROSS MANITOBA...SASKATCHEWAN AND ONTARIO ***
                ***ONTARIO***

CITY           SKY/WX    TMP DP  RH WIND       PRES   REMARKS
GERALDTON      MOSUNNY   75  43  31 NW12G21   29.93F
THUNDER BAY    PTSUNNY   79  39  24 S14G24    29.93F
SIOUX LOOKOUT  MOSUNNY   79  39  24 NW10G18   29.93F
TORONTO        PTSUNNY   82  45  26 NW14G23   30.13F
BIG TROUT LK   SUNNY     72  34  25 W15G22    29.85S
PICKLE LAKE    MOSUNNY   73  21  14 NW9       29.92F
DRYDEN         SUNNY     79  34  19 W8        29.93F
KENORA         CLOUDY    79  46  31 W6        29.95F
$$
                *** MANITOBA***

CITY           SKY/WX    TMP DP  RH WIND       PRES   REMARKS
BRANDON        PTSUNNY   77  41  27 E6        29.94F
DAUPHIN        SUNNY     82  43  24 SE13      29.92F
ISLAND LAKE    SUNNY     72  30  21 W7        29.92F
PILOT MOUND      N/A     77  34  20 SE12G18     N/A
THE PAS          N/A     77  32  19 NW9       29.92F
THOMPSON       MOSUNNY   77  30  18 NW8G23    29.86F
WINNIPEG       CLOUDY    81  39  22 S5        29.93F
LYNN LAKE      MOSUNNY   75  32  20 N13G23    29.90F
CHURCHILL      MOSUNNY   36  28  75 N16       30.04S
GILLAM         LGT RAIN  48  36  61 N10       29.96R
$$
                ***SASKATCHEWAN***

CITY           SKY/WX    TMP DP  RH WIND       PRES   REMARKS
ESTEVAN        PTSUNNY   79  36  21 E12G25    29.94F
KINDERSLEY     PTSUNNY   79  28  15 VRB3      29.98F
LLOYDMINSTER   LGT RAIN  70  39  32 SE15      29.98R
PRINCE ALBERT  MOSUNNY   81  43  26 N8        29.93F
REGINA         PTSUNNY   81  36  19 E9        29.95F



USA.gov is the U.S. government's official web portal to all federal, state and local government web resources and services.